Location: Beaver Dam Church
(34.5318°N, 88.9828°W)
Time: 09:54:41
(UTC+00:00)

SAR-Lupe-1 - Pass Details

Date: 29 October 2020
Orbit: 480 x 485 km, 98.2° (Epoch: 22 November)

Event Time Altitude Azimuth Distance (km) Brightness Sun altitude
Rises 23:42:26 0° 14° (NNE) 2,548 7.5 -8.4°
Reaches altitude 10° 23:44:30 10° 16° (NNE) 1,665 6.5 -8.8°
Maximum altitude 23:48:04 73° 102° (ESE) 507 4.0 -9.5°
Drops below altitude 10° 23:51:37 10° 188° (S) 1,655 7.0 -10.2°
Sets 23:53:40 0° 190° (S) 2,531 8.0 -10.7°
